Tracking 35275 objects as of 9-Sep-2026
HD Live streaming from Space Station
objects crossing your sky now

STARLINK-34088

Track STARLINK-34088 now!
10-day predictions
STARLINK-34088 is classified as:


NORAD ID: 64025
Int'l Code: 2025-102D
Launch date: May 16, 2025
Source: United States (US)
Launch site: AIR FORCE WESTERN TEST RANGE (AFWTR)
Your satellite tracking list
Your tracking list is empty




NASA's NSSDC Master Catalog

Two Line Element Set (TLE):
1 64025U 25102D   26251.47393195  .00009064  00000-0  31929-3 0  9990
2 64025  70.0014  12.7041 0002574 273.7176  86.3705 15.29589997 73369
Source of the keplerian elements: AFSPC